Location: Recife
(8.0585°S, 34.8848°W)
Time: 06:41:27
(UTC-03:00)

Vanguard 1 Rocket - Pass Details

Date: 23 April 2026
Orbit: 655 x 4212 km, 34.3° (Epoch: 13 May)

Event Time Altitude Azimuth Distance (km) Brightness Sun altitude
Rises 16:29:43 0° 250° (WSW) 4,865 12.1 9.8°
Reaches altitude 10° 16:32:26 10° 255° (WSW) 4,223 12.1 9.2°
Maximum altitude 16:44:22 52° 328° (NNW) 3,300 10.8 6.3°
Drops below altitude 10° 17:06:02 10° 38° (NE) 7,174 11.7 1.1°
Sets 17:12:36 0° 43° (NE) 8,396 12.0 -0.5°
